| time (UTC) | temp F | wind direction | speed MPH | gust MPH | rain 1hr in | rain 24hr in | rain mn in | humidity % | barometer mb |
| 20260505221031 | 67 | 69 | 2.0 | 11.0 | 0.00 | 0.00 | 0.00 | 58 | 1015.4 |
| 20260505220528 | 67 | 339 | 3.0 | 16.0 | 0.00 | 0.00 | 0.00 | 59 | 1015.3 |
| 20260505220021 | 67 | 33 | 4.0 | 16.0 | 0.00 | 0.00 | 0.00 | 59 | 1015.4 |
| 20260505215520 | 67 | 353 | 4.0 | 13.0 | 0.00 | 0.00 | 0.00 | 60 | 1015.5 |
| 20260505215019 | 66 | 344 | 4.0 | 13.0 | 0.00 | 0.00 | 0.00 | 60 | 1015.6 |
| 20260505214518 | 66 | 33 | 1.0 | 16.0 | 0.00 | 0.00 | 0.00 | 60 | 1015.7 |
| 20260505214022 | 66 | 318 | 4.0 | 16.0 | 0.00 | 0.00 | 0.00 | 59 | 1015.7 |
| 20260505213518 | 66 | 35 | 3.0 | 11.0 | 0.00 | 0.00 | 0.00 | 59 | 1015.7 |
| 20260505213017 | 66 | 351 | 4.0 | 10.0 | 0.00 | 0.00 | 0.00 | 60 | 1015.9 |
| 20260505212518 | 65 | 301 | 2.0 | 10.0 | 0.00 | 0.00 | 0.00 | 60 | 1015.8 |
| 20260505212018 | 65 | 23 | 0.0 | 8.0 | 0.00 | 0.00 | 0.00 | 61 | 1015.8 |
| 20260505211518 | 65 | 36 | 0.0 | 11.0 | 0.00 | 0.00 | 0.00 | 62 | 1015.7 |
| 20260505211017 | 64 | 308 | 3.0 | 11.0 | 0.00 | 0.00 | 0.00 | 64 | 1015.8 |
| 20260505210515 | 64 | 307 | 1.0 | 10.0 | 0.00 | 0.00 | 0.00 | 64 | 1015.8 |
| 20260505210010 | 64 | 334 | 1.0 | 11.0 | 0.00 | 0.00 | 0.00 | 64 | 1015.8 |
| 20260505205514 | 64 | 311 | 5.0 | 12.0 | 0.00 | 0.00 | 0.00 | 63 | 1015.8 |
| 20260505205011 | 64 | 360 | 3.0 | 15.0 | 0.00 | 0.00 | 0.00 | 62 | 1015.7 |
| 20260505204508 | 65 | 290 | 7.0 | 15.0 | 0.00 | 0.00 | 0.00 | 62 | 1015.7 |
| 20260505204009 | 65 | 316 | 7.0 | 15.0 | 0.00 | 0.00 | 0.00 | 61 | 1015.7 |
| 20260505203511 | 65 | 302 | 7.0 | 19.0 | 0.00 | 0.00 | 0.00 | 61 | 1015.8 |
| 20260505203008 | 65 | 273 | 8.0 | 19.0 | 0.00 | 0.00 | 0.00 | 63 | 1015.7 |
| 20260505202508 | 64 | 356 | 6.0 | 19.0 | 0.00 | 0.00 | 0.00 | 64 | 1015.6 |
| 20260505202008 | 64 | 306 | 6.0 | 18.0 | 0.00 | 0.00 | 0.00 | 64 | 1015.7 |
| 20260505201507 | 64 | 291 | 9.0 | 20.0 | 0.00 | 0.00 | 0.00 | 64 | 1015.7 |
| 20260505201009 | 64 | 308 | 10.0 | 24.0 | 0.00 | 0.00 | 0.00 | 63 | 1015.7 |
| 20260505200514 | 64 | 329 | 11.0 | 24.0 | 0.00 | 0.00 | 0.00 | 64 | 1015.8 |
| 20260505200100 | 64 | 304 | 7.0 | 19.0 | 0.00 | 0.00 | 0.00 | 63 | 1015.8 |
| 20260505195556 | 64 | 7 | 5.0 | 15.0 | 0.00 | 0.00 | 0.00 | 64 | 1015.8 |
| 20260505195056 | 64 | 333 | 7.0 | 16.0 | 0.00 | 0.00 | 0.00 | 63 | 1015.8 |
| 20260505194609 | 64 | 300 | 8.0 | 16.0 | 0.00 | 0.00 | 0.00 | 62 | 1015.9 |
| 20260505194055 | 64 | 292 | 4.0 | 17.0 | 0.00 | 0.00 | 0.00 | 64 | 1015.8 |
| 20260505193559 | 64 | 337 | 4.0 | 17.0 | 0.00 | 0.00 | 0.00 | 63 | 1015.8 |
| 20260505193055 | 65 | 293 | 6.0 | 16.0 | 0.00 | 0.00 | 0.00 | 63 | 1015.7 |
| 20260505192555 | 65 | 254 | 9.0 | 18.0 | 0.00 | 0.00 | 0.00 | 61 | 1015.7 |
| 20260505192055 | 66 | 314 | 9.0 | 18.0 | 0.00 | 0.00 | 0.00 | 61 | 1015.8 |
| 20260505191554 | 66 | 307 | 4.0 | 14.0 | 0.00 | 0.00 | 0.00 | 62 | 1015.7 |
| 20260505191053 | 66 | 306 | 8.0 | 16.0 | 0.00 | 0.00 | 0.00 | 61 | 1015.8 |
| 20260505190551 | 66 | 297 | 5.0 | 13.0 | 0.00 | 0.00 | 0.00 | 63 | 1015.8 |
| 20260505190041 | 65 | 304 | 6.0 | 12.0 | 0.00 | 0.00 | 0.00 | 62 | 1015.8 |
| 20260505185538 | 65 | 325 | 7.0 | 13.0 | 0.00 | 0.00 | 0.00 | 63 | 1015.8 |
| 20260505185038 | 66 | 321 | 8.0 | 13.0 | 0.00 | 0.00 | 0.00 | 63 | 1015.8 |
| 20260505184537 | 65 | 283 | 3.0 | 12.0 | 0.00 | 0.00 | 0.00 | 63 | 1015.8 |
| 20260505184037 | 65 | 293 | 5.0 | 12.0 | 0.00 | 0.00 | 0.00 | 64 | 1015.8 |
| 20260505183536 | 65 | 277 | 6.0 | 11.0 | 0.00 | 0.00 | 0.00 | 64 | 1015.9 |
| 20260505183039 | 65 | 321 | 4.0 | 12.0 | 0.00 | 0.00 | 0.00 | 65 | 1015.8 |
| 20260505182534 | 65 | 304 | 6.0 | 12.0 | 0.00 | 0.00 | 0.00 | 65 | 1015.9 |
| 20260505182037 | 64 | 322 | 7.0 | 13.0 | 0.00 | 0.00 | 0.00 | 65 | 1015.9 |
| 20260505181533 | 65 | 281 | 7.0 | 13.0 | 0.00 | 0.00 | 0.00 | 65 | 1015.9 |
| 20260505181031 | 65 | 281 | 5.0 | 11.0 | 0.00 | 0.00 | 0.00 | 64 | 1015.8 |
| 20260505180531 | 65 | 356 | 4.0 | 11.0 | 0.00 | 0.00 | 0.00 | 65 | 1015.8 |
| 20260505180024 | 65 | 300 | 5.0 | 11.0 | 0.00 | 0.00 | 0.00 | 66 | 1015.9 |
| 20260505175523 | 65 | 296 | 6.0 | 12.0 | 0.00 | 0.00 | 0.00 | 65 | 1015.9 |
| 20260505175022 | 65 | 276 | 5.0 | 14.0 | 0.00 | 0.00 | 0.00 | 66 | 1015.8 |
| 20260505174522 | 65 | 276 | 6.0 | 14.0 | 0.00 | 0.00 | 0.00 | 64 | 1015.7 |
| 20260505174024 | 65 | 277 | 7.0 | 13.0 | 0.00 | 0.00 | 0.00 | 65 | 1015.7 |
| 20260505173521 | 65 | 291 | 4.0 | 9.0 | 0.00 | 0.00 | 0.00 | 64 | 1015.5 |
| 20260505173019 | 65 | 308 | 5.0 | 11.0 | 0.00 | 0.00 | 0.00 | 64 | 1015.6 |
| 20260505172520 | 64 | 331 | 7.0 | 12.0 | 0.00 | 0.00 | 0.00 | 64 | 1015.4 |
| 20260505172018 | 64 | 329 | 4.0 | 12.0 | 0.00 | 0.00 | 0.00 | 64 | 1015.5 |
| 20260505171522 | 64 | 315 | 3.0 | 8.0 | 0.00 | 0.00 | 0.00 | 64 | 1015.4 |
| 20260505171015 | 64 | 343 | 3.0 | 9.0 | 0.00 | 0.00 | 0.00 | 64 | 1015.4 |
| 20260505170515 | 64 | 10 | 2.0 | 10.0 | 0.00 | 0.00 | 0.00 | 61 | 1015.5 |
| 20260505170054 | 64 | 87 | 2.0 | 9.0 | 0.00 | 0.00 | 0.00 | 61 | 1015.6 |
| 20260505165553 | 64 | 319 | 3.0 | 7.0 | 0.00 | 0.00 | 0.00 | 62 | 1015.6 |
| 20260505165052 | 64 | 1 | 1.0 | 8.0 | 0.00 | 0.00 | 0.00 | 61 | 1015.6 |
| 20260505164615 | 64 | 32 | 2.0 | 11.0 | 0.00 | 0.00 | 0.00 | 62 | 1015.6 |
| 20260505164052 | 64 | 23 | 4.0 | 11.0 | 0.00 | 0.00 | 0.00 | 63 | 1015.7 |
| 20260505163549 | 64 | 36 | 4.0 | 11.0 | 0.00 | 0.00 | 0.00 | 64 | 1015.6 |
| 20260505163053 | 63 | 354 | 2.0 | 10.0 | 0.00 | 0.00 | 0.00 | 65 | 1015.6 |
| 20260505162547 | 63 | 60 | 1.0 | 6.0 | 0.00 | 0.00 | 0.00 | 67 | 1015.5 |
| 20260505162046 | 63 | 54 | 2.0 | 7.0 | 0.00 | 0.00 | 0.00 | 67 | 1015.5 |
| 20260505161546 | 62 | 48 | 1.0 | 7.0 | 0.00 | 0.00 | 0.00 | 67 | 1015.5 |
| 20260505161044 | 62 | 62 | 1.0 | 7.0 | 0.00 | 0.00 | 0.00 | 68 | 1015.5 |
| 20260505160545 | 62 | 54 | 2.0 | 9.0 | 0.00 | 0.00 | 0.00 | 69 | 1015.5 |
| 20260505153026 | 60 | 83 | 1.0 | 5.0 | 0.00 | 0.00 | 0.00 | 75 | 1015.4 |
| 20260505152524 | 59 | 102 | 0.0 | 4.0 | 0.00 | 0.00 | 0.00 | 76 | 1015.4 |
| 20260505152027 | 59 | 119 | 0.0 | 4.0 | 0.00 | 0.00 | 0.00 | 76 | 1015.3 |
| 20260505151522 | 58 | 83 | 0.0 | 4.0 | 0.00 | 0.00 | 0.00 | 77 | 1015.4 |
| 20260505151025 | 58 | 96 | 1.0 | 4.0 | 0.00 | 0.00 | 0.00 | 78 | 1015.3 |
| 20260505150518 | 57 | 171 | 1.0 | 3.0 | 0.00 | 0.00 | 0.00 | 80 | 1015.3 |
| 20260505140559 | 52 | 75 | 0.0 | 1.0 | 0.00 | 0.00 | 0.00 | 84 | 1015.0 |
| 20260505125035 | 51 | 58 | 0.0 | 0.0 | 0.00 | 0.00 | 0.00 | 83 | 1014.8 |
| 20260505124540 | 51 | 58 | 0.0 | 0.0 | 0.00 | 0.00 | 0.00 | 83 | 1014.9 |
| 20260505124036 | 51 | 58 | 0.0 | 0.0 | 0.00 | 0.00 | 0.00 | 83 | 1014.8 |
| 20260505123535 | 51 | 58 | 0.0 | 0.0 | 0.00 | 0.00 | 0.00 | 83 | 1014.9 |
| 20260505123039 | 51 | 58 | 0.0 | 0.0 | 0.00 | 0.00 | 0.00 | 83 | 1015.0 |
| 20260505122535 | 51 | 58 | 0.0 | 0.0 | 0.00 | 0.00 | 0.00 | 83 | 1014.8 |
| 20260505122036 | 51 | 58 | 0.0 | 0.0 | 0.00 | 0.00 | 0.00 | 83 | 1014.9 |
| 20260505121535 | 51 | 58 | 0.0 | 0.0 | 0.00 | 0.00 | 0.00 | 83 | 1014.9 |
| 20260505121034 | 51 | 58 | 0.0 | 0.0 | 0.00 | 0.00 | 0.00 | 83 | 1014.8 |
| 20260505120535 | 51 | 58 | 0.0 | 0.0 | 0.00 | 0.00 | 0.00 | 83 | 1014.9 |
| 20260505120033 | 51 | 58 | 0.0 | 0.0 | 0.00 | 0.00 | 0.00 | 83 | 1014.9 |
| 20260505115533 | 51 | 58 | 0.0 | 0.0 | 0.00 | 0.00 | 0.00 | 83 | 1014.9 |
| 20260505115033 | 51 | 58 | 0.0 | 0.0 | 0.00 | 0.00 | 0.00 | 83 | 1014.9 |
| 20260505114533 | 51 | 58 | 0.0 | 0.0 | 0.00 | 0.00 | 0.00 | 83 | 1014.8 |
| 20260505114033 | 51 | 58 | 0.0 | 0.0 | 0.00 | 0.00 | 0.00 | 83 | 1014.8 |
| 20260505113532 | 51 | 58 | 0.0 | 0.0 | 0.00 | 0.00 | 0.00 | 82 | 1014.9 |
| 20260505113032 | 51 | 58 | 0.0 | 0.0 | 0.00 | 0.00 | 0.00 | 82 | 1014.9 |
| 20260505112531 | 51 | 58 | 0.0 | 0.0 | 0.00 | 0.00 | 0.00 | 82 | 1014.9 |
| 20260505112033 | 51 | 58 | 0.0 | 0.0 | 0.00 | 0.00 | 0.00 | 82 | 1014.9 |
| 20260505111537 | 51 | 58 | 0.0 | 0.0 | 0.00 | 0.00 | 0.00 | 82 | 1014.9 |
| 20260505111033 | 51 | 58 | 0.0 | 0.0 | 0.00 | 0.00 | 0.00 | 82 | 1014.8 |
| 20260505110531 | 52 | 58 | 0.0 | 0.0 | 0.00 | 0.00 | 0.00 | 82 | 1014.8 |
| 20260505102029 | 52 | 58 | 0.0 | 0.0 | 0.00 | 0.00 | 0.00 | 82 | 1014.8 |
| 20260505101527 | 52 | 58 | 0.0 | 0.0 | 0.00 | 0.00 | 0.00 | 81 | 1014.8 |
| 20260505101026 | 52 | 58 | 0.0 | 0.0 | 0.00 | 0.00 | 0.00 | 81 | 1014.8 |
| 20260505100526 | 52 | 58 | 0.0 | 0.0 | 0.00 | 0.00 | 0.00 | 82 | 1014.8 |
| 20260505100030 | 52 | 58 | 0.0 | 0.0 | 0.00 | 0.00 | 0.00 | 81 | 1014.9 |
| 20260505095525 | 52 | 58 | 0.0 | 0.0 | 0.00 | 0.00 | 0.00 | 81 | 1014.9 |
| 20260505095024 | 52 | 58 | 0.0 | 0.0 | 0.00 | 0.00 | 0.00 | 81 | 1014.9 |
| 20260505094523 | 52 | 58 | 0.0 | 0.0 | 0.00 | 0.00 | 0.00 | 81 | 1014.9 |
| 20260505094023 | 52 | 58 | 0.0 | 0.0 | 0.00 | 0.00 | 0.00 | 81 | 1015.0 |
| 20260505093523 | 52 | 58 | 0.0 | 0.0 | 0.00 | 0.00 | 0.00 | 81 | 1015.1 |
| 20260505093022 | 52 | 58 | 0.0 | 0.0 | 0.00 | 0.00 | 0.00 | 81 | 1015.1 |
| 20260505092525 | 52 | 58 | 0.0 | 0.0 | 0.00 | 0.00 | 0.00 | 81 | 1015.2 |
| 20260505092020 | 52 | 58 | 0.0 | 0.0 | 0.00 | 0.00 | 0.00 | 81 | 1015.2 |
| 20260505091520 | 52 | 58 | 0.0 | 0.0 | 0.00 | 0.00 | 0.00 | 81 | 1015.2 |
| 20260505091024 | 52 | 58 | 0.0 | 0.0 | 0.00 | 0.00 | 0.00 | 81 | 1015.2 |
| 20260505090519 | 52 | 58 | 0.0 | 0.0 | 0.00 | 0.00 | 0.00 | 80 | 1015.4 |
| 20260505090019 | 52 | 58 | 0.0 | 0.0 | 0.00 | 0.00 | 0.00 | 81 | 1015.4 |
| 20260505085519 | 52 | 58 | 0.0 | 0.0 | 0.00 | 0.00 | 0.00 | 81 | 1015.5 |
| 20260505085018 | 52 | 58 | 0.0 | 0.0 | 0.00 | 0.00 | 0.00 | 81 | 1015.4 |
| 20260505084521 | 52 | 58 | 0.0 | 0.0 | 0.00 | 0.00 | 0.00 | 81 | 1015.5 |
| 20260505084017 | 52 | 58 | 0.0 | 0.0 | 0.00 | 0.00 | 0.00 | 80 | 1015.5 |
| 20260505083516 | 52 | 58 | 0.0 | 0.0 | 0.00 | 0.00 | 0.00 | 80 | 1015.5 |
| 20260505083017 | 52 | 58 | 0.0 | 0.0 | 0.00 | 0.00 | 0.00 | 80 | 1015.5 |
| 20260505082516 | 53 | 58 | 0.0 | 0.0 | 0.00 | 0.00 | 0.00 | 80 | 1015.6 |
| 20260505082018 | 53 | 58 | 0.0 | 0.0 | 0.00 | 0.00 | 0.00 | 80 | 1015.5 |
| 20260505081515 | 53 | 58 | 0.0 | 0.0 | 0.00 | 0.00 | 0.00 | 80 | 1015.6 |
| 20260505081015 | 53 | 58 | 0.0 | 0.0 | 0.00 | 0.00 | 0.00 | 80 | 1015.5 |
| 20260505080518 | 53 | 58 | 0.0 | 0.0 | 0.00 | 0.00 | 0.00 | 80 | 1015.6 |
| 20260505080014 | 53 | 58 | 0.0 | 0.0 | 0.00 | 0.00 | 0.00 | 80 | 1015.6 |
| 20260505075513 | 53 | 58 | 0.0 | 2.0 | 0.00 | 0.00 | 0.00 | 80 | 1015.5 |
| 20260505075016 | 53 | 58 | 0.0 | 2.0 | 0.00 | 0.00 | 0.00 | 79 | 1015.5 |
| 20260505074513 | 53 | 58 | 0.0 | 2.0 | 0.00 | 0.00 | 0.00 | 79 | 1015.6 |
| 20260505074012 | 53 | 58 | 0.0 | 2.0 | 0.00 | 0.00 | 0.00 | 79 | 1015.6 |
| 20260505073512 | 53 | 58 | 0.0 | 0.0 | 0.00 | 0.00 | 0.00 | 78 | 1015.6 |
| 20260505073012 | 53 | 58 | 0.0 | 0.0 | 0.00 | 0.00 | 0.00 | 78 | 1015.7 |
| 20260505072510 | 53 | 58 | 0.0 | 0.0 | 0.00 | 0.00 | 0.00 | 78 | 1015.7 |
| 20260505072009 | 53 | 58 | 0.0 | 0.0 | 0.00 | 0.00 | 0.00 | 78 | 1015.7 |
| 20260505071523 | 53 | 58 | 0.0 | 0.0 | 0.00 | 0.00 | 0.00 | 78 | 1015.6 |
| 20260505071009 | 54 | 58 | 0.0 | 0.0 | 0.00 | 0.00 | 0.00 | 78 | 1015.5 |
| 20260505070508 | 54 | 58 | 0.0 | 0.0 | 0.00 | 0.00 | 0.00 | 78 | 1015.5 |
| 20260505070007 | 54 | 58 | 0.0 | 0.0 | 0.00 | 0.00 | 0.00 | 78 | 1015.6 |
| 20260505065607 | 54 | 58 | 0.0 | 0.0 | 0.00 | 0.00 | 0.00 | 78 | 1015.6 |
| 20260505065006 | 54 | 58 | 0.0 | 0.0 | 0.00 | 0.00 | 0.00 | 78 | 1015.6 |
| 20260505064511 | 54 | 58 | 0.0 | 0.0 | 0.00 | 0.00 | 0.00 | 77 | 1015.6 |
| 20260505064006 | 54 | 58 | 0.0 | 0.0 | 0.00 | 0.00 | 0.00 | 77 | 1015.5 |
| 20260505063506 | 54 | 58 | 0.0 | 0.0 | 0.00 | 0.00 | 0.00 | 77 | 1015.5 |
| 20260505063012 | 54 | 58 | 0.0 | 0.0 | 0.00 | 0.00 | 0.00 | 77 | 1015.6 |
| 20260505062506 | 54 | 58 | 0.0 | 0.0 | 0.00 | 0.00 | 0.00 | 77 | 1015.5 |
| 20260505062005 | 54 | 58 | 0.0 | 0.0 | 0.00 | 0.00 | 0.00 | 77 | 1015.4 |
| 20260505061509 | 54 | 58 | 0.0 | 0.0 | 0.00 | 0.00 | 0.00 | 77 | 1015.4 |
| 20260505061008 | 54 | 58 | 0.0 | 0.0 | 0.00 | 0.00 | 0.00 | 77 | 1015.4 |
| 20260505060508 | 54 | 58 | 0.0 | 0.0 | 0.00 | 0.00 | 0.00 | 77 | 1015.4 |
| 20260505060006 | 55 | 58 | 0.0 | 1.0 | 0.00 | 0.00 | 0.00 | 77 | 1015.5 |
| 20260505055505 | 55 | 58 | 0.0 | 1.0 | 0.00 | 0.00 | 0.00 | 77 | 1015.5 |
| 20260505055005 | 55 | 58 | 0.0 | 0.0 | 0.00 | 0.00 | 0.00 | 77 | 1015.4 |
| 20260505054504 | 55 | 58 | 0.0 | 0.0 | 0.00 | 0.00 | 0.00 | 77 | 1015.3 |
| 20260505054004 | 55 | 58 | 0.0 | 0.0 | 0.00 | 0.00 | 0.00 | 77 | 1015.4 |
| 20260505053504 | 55 | 58 | 0.0 | 0.0 | 0.00 | 0.00 | 0.00 | 77 | 1015.3 |
| 20260505053004 | 55 | 58 | 0.0 | 0.0 | 0.00 | 0.00 | 0.00 | 77 | 1015.4 |
| 20260505052606 | 55 | 58 | 0.0 | 4.0 | 0.00 | 0.00 | 0.00 | 77 | 1015.4 |
| 20260505052002 | 55 | 58 | 0.0 | 4.0 | 0.00 | 0.00 | 0.00 | 77 | 1015.5 |
| 20260505051502 | 55 | 60 | 0.0 | 3.0 | 0.00 | 0.00 | 0.00 | 77 | 1015.5 |
| 20260505051004 | 55 | 60 | 0.0 | 3.0 | 0.00 | 0.00 | 0.00 | 77 | 1015.4 |
| 20260505050501 | 55 | 60 | 0.0 | 2.0 | 0.00 | 0.00 | 0.00 | 77 | 1015.5 |
| 20260505041555 | 55 | 60 | 0.0 | 2.0 | 0.00 | 0.00 | 0.00 | 77 | 1015.4 |
| 20260505041053 | 55 | 60 | 0.0 | 4.0 | 0.00 | 0.00 | 0.00 | 77 | 1015.4 |
| 20260505040553 | 55 | 60 | 0.0 | 6.0 | 0.00 | 0.00 | 0.00 | 77 | 1015.4 |
| 20260505040042 | 55 | 60 | 0.0 | 6.0 | 0.00 | 0.00 | 0.00 | 76 | 1015.3 |
| 20260505035535 | 55 | 26 | 0.0 | 5.0 | 0.00 | 0.00 | 0.00 | 76 | 1015.3 |
| 20260505035036 | 55 | 48 | 0.0 | 5.0 | 0.00 | 0.00 | 0.00 | 75 | 1015.3 |
| 20260505034535 | 55 | 33 | 0.0 | 5.0 | 0.00 | 0.00 | 0.00 | 75 | 1015.3 |
| 20260505034035 | 55 | 32 | 1.0 | 5.0 | 0.00 | 0.00 | 0.00 | 75 | 1015.2 |
| 20260505033534 | 56 | 40 | 0.0 | 4.0 | 0.00 | 0.00 | 0.00 | 74 | 1015.1 |
| 20260505033040 | 56 | 44 | 1.0 | 4.0 | 0.00 | 0.00 | 0.00 | 74 | 1015.1 |
| 20260505032534 | 56 | 53 | 0.0 | 5.0 | 0.00 | 0.00 | 0.00 | 74 | 1015.0 |
| 20260505032033 | 56 | 38 | 0.0 | 4.0 | 0.00 | 0.00 | 0.00 | 73 | 1015.0 |
| 20260505031533 | 56 | 15 | 0.0 | 4.0 | 0.00 | 0.00 | 0.00 | 73 | 1014.9 |
| 20260505031033 | 57 | 19 | 0.0 | 4.0 | 0.00 | 0.00 | 0.00 | 73 | 1015.0 |
| 20260505030534 | 57 | 23 | 1.0 | 7.0 | 0.00 | 0.00 | 0.00 | 72 | 1014.9 |
| 20260505030027 | 57 | 358 | 1.0 | 9.0 | 0.00 | 0.00 | 0.00 | 72 | 1014.9 |
| 20260505025525 | 58 | 1 | 2.0 | 7.0 | 0.00 | 0.00 | 0.00 | 72 | 1015.0 |
| 20260505025024 | 58 | 25 | 0.0 | 8.0 | 0.00 | 0.00 | 0.00 | 71 | 1014.9 |
| 20260505024524 | 58 | 2 | 2.0 | 11.0 | 0.00 | 0.00 | 0.00 | 71 | 1014.9 |
| 20260505024023 | 58 | 35 | 2.0 | 11.0 | 0.00 | 0.00 | 0.00 | 71 | 1014.7 |
| 20260505023523 | 59 | 36 | 2.0 | 8.0 | 0.00 | 0.00 | 0.00 | 70 | 1014.8 |
| 20260505023023 | 59 | 27 | 1.0 | 10.0 | 0.00 | 0.00 | 0.00 | 70 | 1014.8 |
| 20260505022523 | 59 | 15 | 4.0 | 10.0 | 0.00 | 0.00 | 0.00 | 70 | 1014.7 |
| 20260505022023 | 59 | 56 | 0.0 | 8.0 | 0.00 | 0.00 | 0.00 | 70 | 1014.8 |
| 20260505021623 | 59 | 14 | 2.0 | 8.0 | 0.00 | 0.00 | 0.00 | 70 | 1014.7 |
| 20260505021022 | 59 | 9 | 1.0 | 10.0 | 0.00 | 0.00 | 0.00 | 69 | 1014.7 |
| 20260505020522 | 59 | 345 | 0.0 | 8.0 | 0.00 | 0.00 | 0.00 | 69 | 1014.7 |
| 20260505020016 | 60 | 297 | 4.0 | 10.0 | 0.00 | 0.00 | 0.00 | 68 | 1014.7 |
| 20260505015516 | 60 | 322 | 3.0 | 10.0 | 0.00 | 0.00 | 0.00 | 68 | 1014.8 |
| 20260505015017 | 60 | 327 | 0.0 | 8.0 | 0.00 | 0.00 | 0.00 | 68 | 1014.6 |
| 20260505014516 | 61 | 315 | 3.0 | 10.0 | 0.00 | 0.00 | 0.00 | 68 | 1014.7 |
| 20260505014014 | 61 | 304 | 4.0 | 10.0 | 0.00 | 0.00 | 0.00 | 67 | 1014.7 |
| 20260505013514 | 61 | 285 | 3.0 | 9.0 | 0.00 | 0.00 | 0.00 | 67 | 1014.8 |
| 20260505013014 | 61 | 332 | 1.0 | 15.0 | 0.00 | 0.00 | 0.00 | 67 | 1014.8 |
| 20260505012514 | 61 | 267 | 4.0 | 15.0 | 0.00 | 0.00 | 0.00 | 66 | 1014.8 |
| 20260505012014 | 62 | 316 | 5.0 | 13.0 | 0.00 | 0.00 | 0.00 | 66 | 1014.8 |
| 20260505011515 | 62 | 331 | 5.0 | 13.0 | 0.00 | 0.00 | 0.00 | 66 | 1014.8 |
| 20260505011014 | 62 | 316 | 5.0 | 13.0 | 0.00 | 0.00 | 0.00 | 66 | 1014.7 |
| 20260505010514 | 62 | 306 | 8.0 | 13.0 | 0.00 | 0.00 | 0.00 | 66 | 1014.8 |
| 20260505005554 | 62 | 301 | 6.0 | 11.0 | 0.00 | 0.00 | 0.00 | 66 | 1014.8 |
| 20260505005054 | 62 | 318 | 4.0 | 11.0 | 0.00 | 0.00 | 0.00 | 65 | 1014.7 |
| 20260505004554 | 62 | 317 | 4.0 | 13.0 | 0.00 | 0.00 | 0.00 | 64 | 1014.7 |
| 20260505004053 | 62 | 316 | 7.0 | 13.0 | 0.00 | 0.00 | 0.00 | 63 | 1014.6 |
| 20260505003555 | 62 | 311 | 7.0 | 15.0 | 0.00 | 0.00 | 0.00 | 62 | 1014.6 |
| 20260505003053 | 62 | 303 | 8.0 | 15.0 | 0.00 | 0.00 | 0.00 | 62 | 1014.8 |
| 20260505002551 | 63 | 291 | 5.0 | 15.0 | 0.00 | 0.00 | 0.00 | 64 | 1014.7 |
| 20260505002050 | 63 | 309 | 7.0 | 17.0 | 0.00 | 0.00 | 0.00 | 64 | 1014.7 |
| 20260505001550 | 63 | 327 | 7.0 | 17.0 | 0.00 | 0.00 | 0.00 | 63 | 1014.6 |
| 20260505001048 | 64 | 302 | 8.0 | 17.0 | 0.00 | 0.00 | 0.00 | 63 | 1014.6 |
| 20260505000548 | 64 | 270 | 6.0 | 15.0 | 0.00 | 0.00 | 0.00 | 63 | 1014.6 |
| 20260505000042 | 64 | 303 | 6.0 | 15.0 | 0.00 | 0.00 | 0.00 | 63 | 1014.7 |
| 20260504235542 | 64 | 324 | 3.0 | 11.0 | 0.00 | 0.00 | 0.00 | 62 | 1014.5 |
| 20260504235042 | 64 | 286 | 6.0 | 14.0 | 0.00 | 0.00 | 0.00 | 61 | 1014.5 |
| 20260504234543 | 64 | 314 | 8.0 | 14.0 | 0.00 | 0.00 | 0.00 | 60 | 1014.6 |
| 20260504234041 | 64 | 328 | 6.0 | 12.0 | 0.00 | 0.00 | 0.00 | 62 | 1014.5 |
| 20260504233542 | 64 | 281 | 6.0 | 16.0 | 0.00 | 0.00 | 0.00 | 61 | 1014.6 |
| 20260504233043 | 65 | 297 | 6.0 | 16.0 | 0.00 | 0.00 | 0.00 | 61 | 1014.6 |
| 20260504232540 | 65 | 316 | 7.0 | 16.0 | 0.00 | 0.00 | 0.00 | 61 | 1014.6 |
| 20260504232040 | 65 | 316 | 4.0 | 15.0 | 0.00 | 0.00 | 0.00 | 62 | 1014.7 |
| 20260504231542 | 65 | 289 | 8.0 | 15.0 | 0.00 | 0.00 | 0.00 | 61 | 1014.8 |
| 20260504231040 | 65 | 316 | 6.0 | 13.0 | 0.00 | 0.00 | 0.00 | 61 | 1014.9 |
| 20260504230540 | 65 | 305 | 6.0 | 17.0 | 0.00 | 0.00 | 0.00 | 60 | 1014.9 |
| 20260504230033 | 65 | 298 | 6.0 | 15.0 | 0.00 | 0.00 | 0.00 | 61 | 1014.9 |
| 20260504225633 | 66 | 348 | 3.0 | 15.0 | 0.00 | 0.00 | 0.00 | 63 | 1015.0 |
| 20260504225034 | 66 | 287 | 6.0 | 15.0 | 0.00 | 0.00 | 0.00 | 62 | 1015.0 |
| 20260504224532 | 66 | 298 | 8.0 | 15.0 | 0.00 | 0.00 | 0.00 | 61 | 1014.9 |
| 20260504224031 | 66 | 313 | 4.0 | 15.0 | 0.00 | 0.00 | 0.00 | 61 | 1015.0 |
| 20260504223531 | 66 | 331 | 5.0 | 15.0 | 0.00 | 0.00 | 0.00 | 61 | 1015.1 |
| 20260504223031 | 66 | 326 | 8.0 | 16.0 | 0.00 | 0.00 | 0.00 | 62 | 1015.1 |
| 20260504222531 | 66 | 306 | 8.0 | 16.0 | 0.00 | 0.00 | 0.00 | 61 | 1015.1 |
| 20260504222030 | 66 | 331 | 6.0 | 18.0 | 0.00 | 0.00 | 0.00 | 60 | 1015.2 |
| 20260504221530 | 66 | 309 | 9.0 | 18.0 | 0.00 | 0.00 | 0.00 | 60 | 1015.2 |